This is the latest recevied weather packets stored in our database for station/object SQ2WB-13. If no packets are shown the sender has not sent any weather packets the latest 10 day(s).
| Time | Temp. | Humidity | Pressure | Rain* | Wind** | Luminosity | Snow |
|---|---|---|---|---|---|---|---|
| 1777709701 | 22.78° C | 36% | 1015.2 hPa | 0 mm | - | - | - |
| 1777708801 | 21.67° C | 38% | 1015.2 hPa | 0 mm | - | - | - |
| 1777707902 | 21.67° C | 39% | 1015.2 hPa | 0 mm | - | - | - |
| 1777707001 | 20° C | 39% | 1014.9 hPa | 0 mm | - | - | - |
| 1777706101 | 20° C | 40% | 1014.9 hPa | 0 mm | - | - | - |
| 1777705201 | 18.89° C | 44% | 1015.2 hPa | 0 mm | - | - | - |
| 1777704301 | 17.78° C | 43% | 1015.2 hPa | 0 mm | - | - | - |
| 1777703402 | 16.67° C | 43% | 1015.2 hPa | 0 mm | - | - | - |
| 1777702501 | 15.56° C | 49% | 1015.2 hPa | 0 mm | - | - | - |
| 1777701601 | 15° C | 52% | 1015.2 hPa | 0 mm | - | - | - |
| 1777700702 | 13.89° C | 56% | 1015.2 hPa | 0 mm | - | - | - |
| 1777699801 | 12.78° C | 61% | 1015.2 hPa | 0 mm | - | - | - |
| 1777698902 | 10.56° C | 63% | 1015.2 hPa | 0 mm | - | - | - |
| 1777698001 | 10° C | 64% | 1015.2 hPa | 0 mm | - | - | - |
| 1777697101 | 8.89° C | 69% | 1015.2 hPa | 0 mm | - | - | - |
| 1777696201 | 8.89° C | 70% | 1015.2 hPa | 0 mm | - | - | - |
| 1777695301 | 7.78° C | 70% | 1015.2 hPa | 0 mm | - | - | - |
| 1777694402 | 7.78° C | 71% | 1015.2 hPa | 0 mm | - | - | - |
| 1777693501 | 7.78° C | 73% | 1015.2 hPa | 0 mm | - | - | - |
| 1777692601 | 7.78° C | 71% | 1015.2 hPa | 0 mm | - | - | - |
| 1777691701 | 7.78° C | 70% | 1015.2 hPa | 0 mm | - | - | - |
| 1777690801 | 8.89° C | 70% | 1015.2 hPa | 0 mm | - | - | - |
| 1777689902 | 8.89° C | 69% | 1015.2 hPa | 0 mm | - | - | - |
| 1777689001 | 8.89° C | 66% | 1015.2 hPa | 0 mm | - | - | - |
| 1777688102 | 10° C | 66% | 1015.2 hPa | 0 mm | - | - | - |
* Rain latest hour (hover to see other rain measurements)
** Current wind speed in m/s (hover to see current wind gust speed)